Location: Kimberly
(42.5380°N, 114.3640°W)
Time: 21:09:41
(UTC-06:00)

Tiangong 2 - Visible Passes

Search period start: 22 May 2017 00:00
Search period end: 01 June 2017 00:00
Orbit: 380 x 388 km, 42.8° (Epoch: 21 May)

Date Brightness Start Highest point End Pass type
(mag) Time Alt. Az. Time Alt. Az. Time Alt. Az.
22 May 3.1 21:38:22 10° SSE 21:39:33 12° SE 21:40:44 10° ESE visible
22 May 3.5 23:12:44 10° SW 23:13:18 14° SW 23:13:18 14° SW visible
23 May 1.9 22:13:27 10° SW 22:16:18 31° SSE 22:17:54 19° ESE visible
23 May 3.7 23:49:41 10° W 23:50:11 14° W 23:50:11 14° W visible
24 May 0.9 22:50:08 10° WSW 22:53:16 68° SSE 22:54:10 41° E visible
25 May 1.3 21:50:39 10° SW 21:53:43 47° SSE 21:56:47 10° E visible
25 May 1.3 23:27:13 10° W 23:29:59 65° W 23:29:59 65° W visible
26 May 1.0 22:27:36 10° W 22:30:46 87° S 22:33:17 15° E visible
27 May 3.3 00:04:22 10° W 00:05:31 20° W 00:05:31 20° W visible
27 May 1.0 23:04:44 10° W 23:07:55 85° N 23:08:38 50° E visible
28 May 1.1 22:05:05 10° W 22:08:16 84° N 22:11:26 10° E visible
28 May 2.3 23:41:52 10° W 23:43:52 34° W 23:43:52 34° W visible
29 May 0.9 22:42:13 10° W 22:45:23 84° S 22:46:49 30° ESE visible
30 May 1.1 21:42:34 10° W 21:45:44 85° N 21:48:55 10° E visible
30 May 1.8 23:19:21 10° W 23:21:56 40° SW 23:21:56 40° SW visible
31 May 1.1 22:19:39 10° W 22:22:49 65° SSW 22:24:50 20° ESE visible
